Weather History for Bentonville, AR

Change the Weather History Date:

Tuesday, November 29, 2011

  Actual Average Record
Temperature  
Mean Temperature 38 °F -  
Max Temperature 48 °F 49 °F 79 °F (1949)
Min Temperature 28 °F 29 °F 5 °F (1976)
Degree Days  
Heating Degree Days 27    
Moisture  
Dew Point 26 °F    
Average Humidity 65    
Maximum Humidity 86    
Minimum Humidity 42    
Precipitation  
Precipitation 0.00 in - - ()
Sea Level Pressure  
Sea Level Pressure 30.10 in    
Wind  
Wind Speed 8 mph (NNW)    
Max Wind Speed 16 mph    
Max Gust Speed 21 mph    
Visibility 10 miles    
Events      
Averages and records for this station are not official NWS values.
T = Trace of Precipitation, MM = Missing Value Source: NWS Daily Summary

Daily Weather History Graph

Daily Weather History Graph

Search for Another Location

Airport:

Trip Planner

Search our weather history database for the weather conditions in past years. The results will help you decide how hot, cold, wet, or windy it might be!

Date:

Astronomy

Nov. 29, 2011 Rise Set
Actual Time 7:07 AM CST 5:02 PM CST
Civil Twilight 6:39 AM CST 5:30 PM CST
Nautical Twilight 6:07 AM CST 6:02 PM CST
Astronomical Twilight 5:36 AM CST 6:33 PM CST
Moon 10:57 AM CST (11/29) 9:52 PM CST (11/29)
Length of Visible Light 10h 50m
Length of Day
9h 54m
Waxing Crescent, 24% of the Moon is Illuminated
Nov 29
Waxing Crescent
Dec 2
First Quarter
Dec 10
Full
Dec 17
Last Quarter
Dec 24
New

Hourly Weather History & Observations

Time (CST) Temp. Windchill Dew Point Humidity Pressure Visibility Wind Dir Wind Speed Gust Speed Precip Events Conditions
12:15 AM 30.2 °F - 24.8 °F 80% 30.00 in 10.0 mi Calm Calm - N/A   Clear
12:35 AM 30.2 °F 25.4 °F 24.8 °F 80% 29.99 in 10.0 mi NW 4.6 mph - N/A   Clear
12:55 AM 28.4 °F 22.2 °F 24.8 °F 86% 29.99 in 10.0 mi NW 5.8 mph - N/A   Clear
1:15 AM 30.2 °F 24.3 °F 24.8 °F 80% 30.00 in 10.0 mi NNW 5.8 mph - N/A   Clear
1:35 AM 30.2 °F 24.3 °F 26.6 °F 86% 30.00 in 10.0 mi NNW 5.8 mph - N/A   Clear
1:55 AM 30.2 °F 24.3 °F 24.8 °F 80% 29.99 in 10.0 mi NNW 5.8 mph - N/A   Clear
2:15 AM 30.2 °F 23.4 °F 24.8 °F 80% 29.99 in 10.0 mi NNW 6.9 mph - N/A   Clear
2:35 AM 30.2 °F 22.6 °F 26.6 °F 86% 29.99 in 10.0 mi NNW 8.1 mph - N/A   Clear
2:55 AM 30.2 °F 22.6 °F 24.8 °F 80% 30.00 in 10.0 mi NNW 8.1 mph - N/A   Clear
3:15 AM 30.2 °F 21.9 °F 24.8 °F 80% 30.00 in 10.0 mi North 9.2 mph - N/A   Clear
3:35 AM 30.2 °F 21.9 °F 26.6 °F 86% 30.01 in 10.0 mi NNW 9.2 mph - N/A   Clear
3:55 AM 30.2 °F 22.6 °F 26.6 °F 86% 30.01 in 10.0 mi NNW 8.1 mph - N/A   Clear
4:15 AM 30.2 °F 21.9 °F 26.6 °F 86% 30.01 in 10.0 mi NNW 9.2 mph - N/A   Clear
4:35 AM 30.2 °F 22.6 °F 26.6 °F 86% 30.01 in 10.0 mi NNW 8.1 mph - N/A   Clear
4:55 AM 30.2 °F 22.6 °F 26.6 °F 86% 30.02 in 10.0 mi NNW 8.1 mph - N/A   Clear
5:15 AM 30.2 °F 24.3 °F 24.8 °F 80% 30.02 in 10.0 mi NNW 5.8 mph - N/A   Clear
5:35 AM 30.2 °F 22.6 °F 26.6 °F 86% 30.03 in 10.0 mi NNW 8.1 mph - N/A   Clear
5:55 AM 30.2 °F 24.3 °F 26.6 °F 86% 30.03 in 10.0 mi NNW 5.8 mph - N/A   Clear
6:35 AM 32.0 °F 23.6 °F 24.8 °F 75% 30.05 in 10.0 mi NNW 10.4 mph - N/A   Clear
6:55 AM 32.0 °F 23.0 °F 24.8 °F 75% 30.06 in 10.0 mi NNW 11.5 mph 17.3 mph N/A   Clear
7:15 AM 32.0 °F 23.6 °F 24.8 °F 75% 30.07 in 10.0 mi NNW 10.4 mph - N/A   Clear
7:35 AM 32.0 °F 22.5 °F 24.8 °F 75% 30.07 in 10.0 mi NNW 12.7 mph 16.1 mph N/A   Clear
7:55 AM 32.0 °F 23.0 °F 24.8 °F 75% 30.08 in 10.0 mi NNW 11.5 mph 19.6 mph N/A   Clear
8:15 AM 33.8 °F 24.8 °F 24.8 °F 70% 30.09 in 10.0 mi NNW 12.7 mph 18.4 mph N/A   Clear
8:35 AM 33.8 °F 24.3 °F 26.6 °F 75% 30.09 in 10.0 mi North 13.8 mph 18.4 mph N/A   Clear
8:55 AM 35.6 °F 26.6 °F 26.6 °F 70% 30.09 in 10.0 mi North 13.8 mph 18.4 mph N/A   Clear
9:15 AM 35.6 °F 27.5 °F 26.6 °F 70% 30.11 in 10.0 mi NNW 11.5 mph - N/A   Clear
9:35 AM 35.6 °F 27.5 °F 26.6 °F 70% 30.12 in 10.0 mi North 11.5 mph - N/A   Clear
9:55 AM 37.4 °F 29.8 °F 28.4 °F 70% 30.13 in 10.0 mi NNW 11.5 mph - N/A   Clear
10:35 AM 39.2 °F 30.5 °F 28.4 °F 65% 30.14 in 10.0 mi North 16.1 mph 20.7 mph N/A   Clear
10:55 AM 39.2 °F 31.2 °F 28.4 °F 65% 30.13 in 10.0 mi North 13.8 mph 19.6 mph N/A   Clear
11:15 AM 41.0 °F 33.5 °F 28.4 °F 61% 30.13 in 10.0 mi North 13.8 mph 18.4 mph N/A   Clear
11:35 AM 42.8 °F 36.2 °F 28.4 °F 57% 30.13 in 10.0 mi NNW 12.7 mph - N/A   Clear
11:55 AM 44.6 °F 38.8 °F 30.2 °F 57% 30.14 in 10.0 mi North 11.5 mph - N/A   Clear
12:35 PM 44.6 °F 38.4 °F 30.2 °F 57% 30.13 in 10.0 mi NNW 12.7 mph 20.7 mph N/A   Clear
12:55 PM 46.4 °F 41.5 °F 30.2 °F 53% 30.12 in 10.0 mi NNW 10.4 mph 16.1 mph N/A   Clear
1:55 PM 48.2 °F - 30.2 °F 50% 30.13 in 10.0 mi NNW 11.5 mph 19.6 mph N/A   Clear
2:15 PM 48.2 °F - 32.0 °F 54% 30.13 in 10.0 mi NW 11.5 mph 17.3 mph N/A   Clear
2:35 PM 48.2 °F - 30.2 °F 50% 30.13 in 10.0 mi NNW 11.5 mph 18.4 mph N/A   Clear
2:55 PM 48.2 °F - 30.2 °F 50% 30.14 in 10.0 mi NNW 13.8 mph 18.4 mph N/A   Clear
3:15 PM 48.2 °F - 30.2 °F 50% 30.14 in 10.0 mi North 15.0 mph 18.4 mph N/A   Clear
3:35 PM 48.2 °F - 30.2 °F 50% 30.14 in 10.0 mi NNW 11.5 mph 19.6 mph N/A   Clear
3:55 PM 46.4 °F 42.4 °F 28.4 °F 50% 30.15 in 10.0 mi NNW 8.1 mph - N/A   Clear
4:15 PM 46.4 °F 39.8 °F 26.6 °F 46% 30.15 in 10.0 mi North 16.1 mph 20.7 mph N/A   Clear
4:35 PM 46.4 °F 41.9 °F 26.6 °F 46% 30.16 in 10.0 mi NNW 9.2 mph - N/A   Clear
4:55 PM 46.4 °F 42.4 °F 26.6 °F 46% 30.16 in 10.0 mi North 8.1 mph - N/A   Clear
5:15 PM 44.6 °F 41.4 °F 24.8 °F 46% 30.17 in 10.0 mi North 5.8 mph - N/A   Clear
5:35 PM 44.6 °F 40.7 °F 24.8 °F 46% 30.17 in 10.0 mi NNW 6.9 mph - N/A   Clear
5:55 PM 44.6 °F 42.2 °F 24.8 °F 46% 30.17 in 10.0 mi NNW 4.6 mph - N/A   Clear
6:15 PM 42.8 °F 39.3 °F 24.8 °F 49% 30.17 in 10.0 mi NNW 5.8 mph - N/A   Clear
6:35 PM 42.8 °F 38.6 °F 23.0 °F 46% 30.18 in 10.0 mi NNW 6.9 mph - N/A   Clear
6:55 PM 42.8 °F 39.3 °F 21.2 °F 42% 30.18 in 10.0 mi NNW 5.8 mph - N/A   Clear
7:35 PM 41.0 °F 36.4 °F 21.2 °F 45% 30.18 in 10.0 mi NW 6.9 mph - N/A   Clear
7:55 PM 41.0 °F 37.1 °F 21.2 °F 45% 30.18 in 10.0 mi NNW 5.8 mph - N/A   Clear
8:15 PM 39.2 °F 33.6 °F 21.2 °F 49% 30.19 in 10.0 mi NNW 8.1 mph - N/A   Clear
8:35 PM 39.2 °F 34.2 °F 21.2 °F 49% 30.19 in 10.0 mi NNW 6.9 mph - N/A   Clear
8:55 PM 39.2 °F 34.2 °F 21.2 °F 49% 30.19 in 10.0 mi NNW 6.9 mph - N/A   Clear
9:15 PM 37.4 °F 33.8 °F 21.2 °F 52% 30.19 in 10.0 mi NNW 4.6 mph - N/A   Clear
9:35 PM 37.4 °F 34.9 °F 21.2 °F 52% 30.19 in 10.0 mi NW 3.5 mph - N/A   Clear
9:55 PM 35.6 °F 31.7 °F 21.2 °F 56% 30.20 in 10.0 mi NNW 4.6 mph - N/A   Clear
10:15 PM 35.6 °F 32.8 °F 21.2 °F 56% 30.20 in 10.0 mi NNW 3.5 mph - N/A   Clear
10:35 PM 33.8 °F 30.8 °F 21.2 °F 60% 30.19 in 10.0 mi NNW 3.5 mph - N/A   Clear
10:55 PM 33.8 °F 30.8 °F 21.2 °F 60% 30.20 in 10.0 mi NNW 3.5 mph - N/A   Clear
11:15 PM 30.2 °F - 21.2 °F 69% 30.20 in 10.0 mi Calm Calm - N/A   Clear
11:35 PM 28.4 °F - 19.4 °F 69% 30.19 in 10.0 mi Calm Calm - N/A   Clear
11:55 PM 28.4 °F - 19.4 °F 69% 30.19 in 10.0 mi Calm Calm - N/A   Clear